STARLINK-30508, 57979

Orbit data source: Space-Track

STARLINK-30508, 57979 is a payload satellite owned by SpaceX/Seattle (US) in LEO that was launched on Sat, 30 Sep 2023 UTC via an FALCON 9 launch vehicle from the Air Force Eastern Test Range (AFETR). Payload-class satellites include a variety of spacecraft equipped with specific instruments for various scientific and technological missions. These include communications satellites like Starlink; space stations such as the ISS; scientific satellites like the Hubble; Earth observation satellites from companies like Planet Labs, Umbra, and HawkEye 360; GPS; miniature CubeSats for education and research; and military/defense satellites.

Loading next visibility...
Identifier
57979, 2023-151R
Orbit
LEO
Country
Flag of USUS
Related business
Manufacturer
SpaceX/Seattle
Mission
Operational Commercial Communications
Bus & Motor
STARLINK V2M, Unknown motor
Mass
730 kg wet, ~700 kg dry
Launch date (UTC)
2023-09-30 (3 years ago)
Launch vehicle
FALCON 9
Launch site
Air Force Eastern Test Range (AFETR)
Object type
Payload
Rocket body
Debris
Shape & HBR
Box + 2 Pan, 17.7 m
Radar Cross Section
33.884 m², Large (>1 m²)

Expand to show TLE details & history
Last TLE update: 1 day ago

TLE from 1 day ago
0 STARLINK-30508
1 57979U 23151R   26236.41673617  .00004079  00000-0  15766-3 0  9991
2 57979  43.0063 123.5664 0001022 274.2096  85.8639 15.27579714161248
Epoch: 2026-08-24T10:00Z
TLE epoch observation values (Epoch: 2026-08-24T10:00:06.005Z)
Latitude
Longitude
0.84264°
Altitude
482.776 km
Speed
7.626 km/s
True Right ascension
08h 14m 15s
True Declination
0° 00' 00"
Sunlit
Object was in daylight at epoch
Visualization orbit readout
Latitude
Unknown
Longitude
Unknown
Altitude
Unknown
Speed
Unknown
Apparent Right ascension
Unknown
Apparent Declination
Unknown
Sunlit
N/A
Visualization observer readout
Local Sidereal Time
00:46:51
Azimuth
Unknown
Elevation
Unknown
Doppler factor
Unknown
Orbital elements
Apogee altitude
485.695 km
Perigee altitude
484.293 km
Semi-major axis
6,863.131 km
Eccentricity
0.0001
Inclination
43.0063°
RAAN
123.5664°
Arg. of periapsis
274.2096°
True anomaly
85.87558°
Mean anomaly
85.8639°
Eccentric anomaly
85.86974°
Mean motion
3.81733 °/min
Orbital period
94.31 mins
BSTAR
0.00015766
Loading maneuver chart data...
Computing Atmospheric mass density...
Loading historical data...
Loading historical data...
Loading historical data...
Loading historical data...
Loading historical data...
Loading historical data...
Loading historical data...

Documentation

Showing up to 5 results
|